Find Starlink 2692

NORAD ID: 48434 Int'l Des: 2021-040 Owner: SPXS Country: US Constellation: starlink operational
LEOCIRCULAR

現在のビュー

3D地球を読み込み中...

About Starlink 2692

Starlink 2692 (NORAD 48434) is a starlink constellation satellite (v1.0) launched May 9, 2021 by SPXS of US. It operates in LEO, CIRCULAR orbit with a mass of 260.00 kg.

次回通過

Passes for default location (London). Set your location on the main map for personalized predictions.

高度履歴

Loading altitude history...

軌道要素

1 48434U 21040G 26263.45712458 .00000660 00000-0 33013-4 0 9991
2 48434 53.1611 326.3636 0001311 94.6850 265.4301 15.31705979296880
Epoch: Sep 20, 2026 • Age: 14 hours

現在のステータス

高度 472.8 km
遠地点 / 近地点 N/A
速度 7.63 km/s
衛星直下点 -5.73°S, 56.09°W
打ち上げ日 May 9, 2021
運用期間 5.3 years
タイプ internet

技術仕様

分類 Payload
質量 260.00 kg
乾燥質量 248.00 kg
長さ 0.20 m
スパン 9.00 m
形状 ? Box + pan
製造者 SPXS
バスタイプ Starlink
フェーズステータス In Orbit
所有者/国 SPXS/US

Most Searched